Flag for U.S.A. Weather past 2 weeks in Gainesville, Florida, U.S.A.

Now
75 °F

Clear.


Feels Like: 73 °F
Forecast: 73 / 90 °F
Wind: No wind

Location: Gainesville Regional Airport

Current Time: Sep 3, 2015 at 5:20:36 AM

Latest Report: Sep 3, 2015 at 4:53 AM


Visibility: 10 mi

Pressure: 29.95 "Hg

Humidity: 94%

Dew point: 73 °F

Location of GainesvilleLocation

Historic Weather in Gainesville — Graph

°F

Gainesville temperature yesterday

Maximum temperature yesterday: 89 °F (at 3:53 PM)
Minimum temperature yesterday: 76 °F (at 12:53 AM)
Average temperature yesterday: 81 °F

Past Weeks' High & Low Weather Summary

 TemperatureHumidityPressure
High93 °F (Aug 21, 1:53 PM)100% (Aug 31, 4:01 AM)30.10 "Hg (Aug 31, 4:01 AM)
Low71 °F (Aug 27, 5:53 AM)46% (Aug 25, 1:53 PM)29.85 "Hg (Aug 25, 5:53 PM)
Average80 °F83%29.99 "Hg
* Reported Aug 19 3:53 AM — Sep 3 3:53 AM, Gainesville, Weather by CustomWeather, © 2015

Note: Actual official high and low records may vary slightly from our data, if they occured in-between our weather recording intervals... More about our weather records

Advertising

Gainesville weather history for previous 24 hours

 ConditionsComfort  
Time TempWeatherWind HumidityBarometerVisibility
3:53 AM
Thu, Sep 3
74 °FPassing clouds.No wind97%29.95 "Hg10 mi
2:53 AM76 °FClear.No wind94%29.96 "Hg10 mi
1:53 AM76 °FClear.No wind94%29.97 "Hg10 mi
12:53 AM77 °FClear.6 mph90%29.99 "Hg10 mi
11:53 PM
Wed, Sep 2
78 °FClear.7 mph87%29.98 "Hg10 mi
10:53 PM79 °FClear.8 mph84%29.99 "Hg10 mi
9:53 PM79 °FClear.3 mph84%30.00 "Hg10 mi
8:53 PM81 °FClear.3 mph79%29.99 "Hg10 mi
7:53 PM82 °FSunny.6 mph74%29.97 "Hg10 mi
6:53 PM86 °FSunny.12 mph63%29.97 "Hg10 mi
5:53 PM88 °FSunny.9 mph63%29.97 "Hg10 mi
4:53 PM86 °FPartly sunny.15 mph67%29.97 "Hg10 mi
3:53 PM89 °FSunny.14 mph59%29.99 "Hg10 mi
2:53 PM87 °FSunny.12 mph63%30.02 "Hg10 mi
1:53 PM86 °FSunny.9 mph70%30.04 "Hg10 mi
12:53 PM82 °FThundershowers. Scattered clouds.7 mph77%30.06 "Hg10 mi
11:53 AM88 °FScattered clouds.10 mph65%30.07 "Hg10 mi
10:53 AM87 °FScattered clouds.13 mph67%30.08 "Hg10 mi
9:53 AM84 °FScattered clouds.8 mph80%30.07 "Hg10 mi
8:53 AM79 °FScattered clouds.3 mph88%30.08 "Hg10 mi
7:53 AM76 °FClear.No wind97%30.07 "Hg9 mi
6:53 AM76 °FClear.3 mph94%30.05 "Hg10 mi
5:53 AM77 °FPassing clouds.3 mph94%30.03 "Hg10 mi
Weather by CustomWeather, © 2015

See weather overviewHow to use our weather pages